Time,TemperatureF,DewpointF,PressureIn,WindDirection,WindDirectionDegrees,WindSpeedMPH,WindSpeedGustMPH,Humidity,HourlyPrecipIn,Conditions,Clouds,dailyrainin,SoftwareType,DateUTC
2013-03-27 00:12:00,22.1,13.2,29.79,NW,315,0.0,0.0,68,0.00,,---,0.00,VWS V14.01,2013-03-27 06:12:00,
2013-03-27 00:27:00,22.1,13.5,29.82,NW,315,0.0,0.0,69,0.00,,---,0.00,VWS V14.01,2013-03-27 06:27:00,
2013-03-27 00:42:00,21.6,13.0,29.79,NW,315,0.0,0.0,69,0.00,,---,0.00,VWS V14.01,2013-03-27 06:42:00,
2013-03-27 00:57:00,21.4,13.1,29.79,NE,45,0.0,0.0,70,0.00,,---,0.00,VWS V14.01,2013-03-27 06:57:00,
2013-03-27 01:12:00,21.2,13.3,29.79,NW,315,0.0,0.0,71,0.00,,---,0.00,VWS V14.01,2013-03-27 07:12:00,
2013-03-27 01:27:00,21.2,13.6,29.79,NE,45,2.2,2.2,72,0.00,,---,0.00,VWS V14.01,2013-03-27 07:27:00,
2013-03-27 01:42:00,21.2,13.6,29.79,East,90,0.0,2.2,72,0.00,,---,0.00,VWS V14.01,2013-03-27 07:42:00,
2013-03-27 01:57:00,20.8,13.2,29.79,SSE,158,0.0,0.0,72,0.00,,---,0.00,VWS V14.01,2013-03-27 07:57:00,
2013-03-27 02:12:00,20.3,12.7,29.79,SSE,158,0.0,0.0,72,0.00,,---,0.00,VWS V14.01,2013-03-27 08:12:00,
2013-03-27 02:27:00,21.6,14.3,29.79,SSE,158,0.0,0.0,73,0.00,,---,0.00,VWS V14.01,2013-03-27 08:27:00,
2013-03-27 02:42:00,21.0,13.4,29.82,SSE,158,0.0,0.0,72,0.00,,---,0.00,VWS V14.01,2013-03-27 08:42:00,
2013-03-27 02:57:00,20.5,12.9,29.79,SE,135,0.0,0.0,72,0.00,,---,0.00,VWS V14.01,2013-03-27 08:57:00,
2013-03-27 03:12:00,20.7,13.1,29.79,WSW,248,0.0,0.0,72,0.00,,---,0.00,VWS V14.01,2013-03-27 09:12:00,
2013-03-27 03:27:00,20.5,12.9,29.79,South,180,0.0,0.0,72,0.00,,---,0.00,VWS V14.01,2013-03-27 09:27:00,
2013-03-27 03:42:00,19.9,12.7,29.79,WNW,292,0.0,0.0,73,0.00,,---,0.00,VWS V14.01,2013-03-27 09:42:00,
2013-03-27 03:57:00,19.9,13.3,29.79,SSE,158,1.3,1.3,75,0.00,,---,0.00,VWS V14.01,2013-03-27 09:57:00,
2013-03-27 04:12:00,19.2,12.3,29.76,SSE,158,0.0,1.3,74,0.00,,---,0.00,VWS V14.01,2013-03-27 10:12:00,
2013-03-27 04:27:00,19.0,12.1,29.79,WNW,292,0.0,0.0,74,0.00,,---,0.00,VWS V14.01,2013-03-27 10:27:00,
2013-03-27 04:42:00,19.4,12.8,29.76,North,0,0.0,0.0,75,0.00,,---,0.00,VWS V14.01,2013-03-27 10:42:00,
2013-03-27 04:57:00,18.9,12.3,29.76,NNW,338,0.0,0.0,75,0.00,,---,0.00,VWS V14.01,2013-03-27 10:57:00,
2013-03-27 05:12:00,18.9,12.6,29.76,NNW,338,0.0,0.0,76,0.00,,---,0.00,VWS V14.01,2013-03-27 11:12:00,
2013-03-27 05:27:00,18.7,12.4,29.76,NNW,338,0.0,0.0,76,0.00,,---,0.00,VWS V14.01,2013-03-27 11:27:00,
2013-03-27 05:42:00,19.0,13.0,29.76,East,90,0.0,0.0,77,0.00,,---,0.00,VWS V14.01,2013-03-27 11:42:00,
2013-03-27 05:57:00,18.5,12.2,29.76,SW,225,0.0,0.0,76,0.00,,---,0.00,VWS V14.01,2013-03-27 11:57:00,
2013-03-27 06:12:00,19.4,13.4,29.76,NNE,22,2.9,2.9,77,0.00,,---,0.00,VWS V14.01,2013-03-27 12:12:00,
2013-03-27 06:27:00,19.4,12.8,29.74,WNW,292,0.0,2.9,75,0.00,,---,0.00,VWS V14.01,2013-03-27 12:27:00,
2013-03-27 06:42:00,19.4,12.5,29.79,NW,315,0.0,0.0,74,0.00,,---,0.00,VWS V14.01,2013-03-27 12:42:00,
2013-03-27 06:57:00,19.8,12.8,29.79,WNW,292,0.0,0.0,74,0.00,,---,0.00,VWS V14.01,2013-03-27 12:57:00,
2013-03-27 07:12:00,19.6,12.6,29.79,WNW,292,0.0,0.0,74,0.00,,---,0.00,VWS V14.01,2013-03-27 13:12:00,
2013-03-27 07:27:00,20.8,13.9,29.79,SSW,202,0.0,0.0,74,0.00,,---,0.00,VWS V14.01,2013-03-27 13:27:00,
2013-03-27 07:42:00,21.7,14.7,29.79,West,270,1.6,1.6,74,0.00,,---,0.00,VWS V14.01,2013-03-27 13:42:00,
2013-03-27 07:57:00,23.9,16.8,29.79,NW,315,1.6,1.6,74,0.00,,---,0.00,VWS V14.01,2013-03-27 13:57:00,
2013-03-27 08:12:00,28.6,22.0,29.79,South,180,0.0,1.6,76,0.00,,---,0.00,VWS V14.01,2013-03-27 14:12:00,
2013-03-27 08:27:00,34.3,24.5,29.76,ENE,68,1.3,1.3,67,0.00,,---,0.00,VWS V14.01,2013-03-27 14:27:00,
2013-03-27 08:42:00,36.9,23.9,29.79,East,90,1.3,1.3,59,0.00,,---,0.00,VWS V14.01,2013-03-27 14:42:00,
2013-03-27 08:57:00,38.8,24.5,29.79,East,90,0.9,1.3,56,0.00,,---,0.00,VWS V14.01,2013-03-27 14:57:00,
2013-03-27 09:12:00,41.5,26.1,29.79,East,90,2.2,2.2,54,0.00,,---,0.00,VWS V14.01,2013-03-27 15:12:00,
2013-03-27 09:27:00,43.5,27.5,29.76,South,180,0.0,2.2,53,0.00,,---,0.00,VWS V14.01,2013-03-27 15:27:00,
2013-03-27 09:42:00,45.9,28.3,29.79,SSE,158,3.1,3.1,50,0.00,,---,0.00,VWS V14.01,2013-03-27 15:42:00,
2013-03-27 09:57:00,47.5,29.3,29.79,NNE,22,1.3,3.1,49,0.00,,---,0.00,VWS V14.01,2013-03-27 15:57:00,
2013-03-27 10:12:00,49.1,29.8,29.79,East,90,0.0,1.3,47,0.00,,---,0.00,VWS V14.01,2013-03-27 16:12:00,
2013-03-27 10:27:00,50.5,30.0,29.79,North,0,2.0,2.0,45,0.00,,---,0.00,VWS V14.01,2013-03-27 16:27:00,
2013-03-27 10:42:00,51.3,29.5,29.79,East,90,2.7,2.7,43,0.00,,---,0.00,VWS V14.01,2013-03-27 16:42:00,
2013-03-27 10:57:00,52.3,30.0,29.79,NNE,22,3.1,3.1,42,0.00,,---,0.00,VWS V14.01,2013-03-27 16:57:00,
2013-03-27 11:12:00,53.1,30.0,29.82,ENE,68,2.5,3.1,41,0.00,,---,0.00,VWS V14.01,2013-03-27 17:12:00,
2013-03-27 11:27:00,54.5,31.3,29.82,SE,135,3.4,3.4,41,0.00,,---,0.00,VWS V14.01,2013-03-27 17:27:00,
2013-03-27 11:42:00,55.9,32.6,29.79,ENE,68,1.1,3.4,41,0.00,,---,0.00,VWS V14.01,2013-03-27 17:42:00,
2013-03-27 11:57:00,56.7,33.2,29.79,South,180,4.0,4.0,41,0.00,,---,0.00,VWS V14.01,2013-03-27 17:57:00,
2013-03-27 12:12:00,57.4,33.9,29.82,South,180,2.0,4.0,41,0.00,,---,0.00,VWS V14.01,2013-03-27 18:12:00,
2013-03-27 12:27:00,59.0,34.7,29.79,ESE,112,3.6,3.6,40,0.00,,---,0.00,VWS V14.01,2013-03-27 18:27:00,
2013-03-27 12:42:00,59.2,34.9,29.79,ESE,112,5.6,5.6,40,0.00,,---,0.00,VWS V14.01,2013-03-27 18:42:00,
2013-03-27 12:57:00,59.9,35.5,29.79,SSE,158,3.4,5.6,40,0.00,,---,0.00,VWS V14.01,2013-03-27 18:57:00,
2013-03-27 13:12:00,60.8,35.7,29.79,ENE,68,2.7,3.4,39,0.00,,---,0.00,VWS V14.01,2013-03-27 19:12:00,
2013-03-27 13:27:00,61.7,36.5,29.79,SSW,202,2.9,2.9,39,0.00,,---,0.00,VWS V14.01,2013-03-27 19:27:00,
2013-03-27 13:42:00,63.0,35.6,29.79,East,90,3.4,3.4,36,0.00,,---,0.00,VWS V14.01,2013-03-27 19:42:00,
2013-03-27 13:57:00,64.2,36.7,29.79,South,180,2.5,3.4,36,0.00,,---,0.00,VWS V14.01,2013-03-27 19:57:00,
2013-03-27 14:12:00,63.9,34.2,29.79,East,90,1.6,2.5,33,0.00,,---,0.00,VWS V14.01,2013-03-27 20:12:00,
2013-03-27 14:27:00,64.2,34.5,29.79,NNE,22,2.7,2.7,33,0.00,,---,0.00,VWS V14.01,2013-03-27 20:27:00,
2013-03-27 14:42:00,64.6,36.3,29.79,SE,135,3.4,3.4,35,0.00,,---,0.00,VWS V14.01,2013-03-27 20:42:00,
2013-03-27 14:57:00,65.1,36.8,29.79,East,90,5.8,5.8,35,0.00,,---,0.00,VWS V14.01,2013-03-27 20:57:00,
2013-03-27 15:12:00,64.2,34.5,29.79,NNW,338,2.5,5.8,33,0.00,,---,0.00,VWS V14.01,2013-03-27 21:12:00,
2013-03-27 15:27:00,65.1,35.3,29.79,ESE,112,3.1,3.1,33,0.00,,---,0.00,VWS V14.01,2013-03-27 21:27:00,
2013-03-27 15:42:00,64.2,34.5,29.79,ENE,68,2.5,3.1,33,0.00,,---,0.00,VWS V14.01,2013-03-27 21:42:00,
2013-03-27 15:57:00,64.2,34.5,29.79,East,90,4.3,4.3,33,0.00,,---,0.00,VWS V14.01,2013-03-27 21:57:00,
2013-03-27 16:12:00,63.9,34.2,29.79,SE,135,1.1,4.3,33,0.00,,---,0.00,VWS V14.01,2013-03-27 22:12:00,
2013-03-27 16:27:00,63.1,33.6,29.79,SSE,158,2.7,2.7,33,0.00,,---,0.00,VWS V14.01,2013-03-27 22:27:00,
2013-03-27 16:42:00,62.4,33.7,29.79,NE,45,4.5,4.5,34,0.00,,---,0.00,VWS V14.01,2013-03-27 22:42:00,
2013-03-27 16:57:00,62.1,33.4,29.79,SSW,202,7.2,7.2,34,0.00,,---,0.00,VWS V14.01,2013-03-27 22:57:00,
2013-03-27 17:12:00,60.6,30.6,29.79,ESE,112,3.1,7.2,32,0.00,,---,0.00,VWS V14.01,2013-03-27 23:12:00,
2013-03-27 17:27:00,59.9,30.0,29.79,SE,135,3.1,3.1,32,0.00,,---,0.00,VWS V14.01,2013-03-27 23:27:00,
2013-03-27 17:42:00,60.1,30.1,29.79,South,180,3.4,3.4,32,0.00,,---,0.00,VWS V14.01,2013-03-27 23:42:00,
2013-03-27 17:57:00,60.4,30.5,29.79,East,90,3.1,3.4,32,0.00,,---,0.00,VWS V14.01,2013-03-27 23:57:00,
2013-03-27 18:12:00,60.3,30.3,29.79,East,90,0.0,3.1,32,0.00,,---,0.00,VWS V14.01,2013-03-28 00:12:00,
2013-03-27 18:27:00,59.4,29.5,29.79,SSE,158,0.0,0.0,32,0.00,,---,0.00,VWS V14.01,2013-03-28 00:27:00,
2013-03-27 18:42:00,52.3,24.1,29.79,East,90,0.0,0.0,33,0.00,,---,0.00,VWS V14.01,2013-03-28 00:42:00,
2013-03-27 18:57:00,48.6,21.5,29.79,SE,135,0.0,0.0,34,0.00,,---,0.00,VWS V14.01,2013-03-28 00:57:00,
2013-03-27 19:12:00,45.5,20.8,29.79,SE,135,0.0,0.0,37,0.00,,---,0.00,VWS V14.01,2013-03-28 01:12:00,
2013-03-27 19:27:00,42.8,19.0,29.79,SE,135,0.0,0.0,38,0.00,,---,0.00,VWS V14.01,2013-03-28 01:27:00,
2013-03-27 19:42:00,41.0,19.1,29.79,NW,315,0.0,0.0,41,0.00,,---,0.00,VWS V14.01,2013-03-28 01:42:00,
2013-03-27 19:57:00,39.7,19.6,29.79,South,180,0.0,0.0,44,0.00,,---,0.00,VWS V14.01,2013-03-28 01:57:00,
2013-03-27 20:12:00,37.9,18.5,29.76,South,180,0.0,0.0,45,0.00,,---,0.00,VWS V14.01,2013-03-28 02:12:00,
2013-03-27 20:27:00,36.3,18.0,29.79,South,180,0.0,0.0,47,0.00,,---,0.00,VWS V14.01,2013-03-28 02:27:00,
2013-03-27 20:42:00,35.2,17.5,29.79,South,180,0.0,0.0,48,0.00,,---,0.00,VWS V14.01,2013-03-28 02:42:00,
2013-03-27 20:57:00,34.9,18.1,29.79,South,180,0.0,0.0,50,0.00,,---,0.00,VWS V14.01,2013-03-28 02:57:00,
2013-03-27 21:12:00,34.3,17.6,29.76,South,180,0.0,0.0,50,0.00,,---,0.00,VWS V14.01,2013-03-28 03:12:00,
2013-03-27 21:27:00,33.6,17.9,29.79,South,180,0.0,0.0,52,0.00,,---,0.00,VWS V14.01,2013-03-28 03:27:00,
2013-03-27 21:42:00,33.6,18.3,29.79,South,180,0.0,0.0,53,0.00,,---,0.00,VWS V14.01,2013-03-28 03:42:00,
2013-03-27 21:57:00,34.2,18.8,29.79,SSE,158,0.0,0.0,53,0.00,,---,0.00,VWS V14.01,2013-03-28 03:57:00,
2013-03-27 22:12:00,34.9,19.9,29.79,SSE,158,0.0,0.0,54,0.00,,---,0.00,VWS V14.01,2013-03-28 04:12:00,
2013-03-27 22:27:00,35.1,20.1,29.79,SSE,158,0.0,0.0,54,0.00,,---,0.00,VWS V14.01,2013-03-28 04:27:00,
2013-03-27 22:42:00,35.8,20.8,29.79,SSE,158,0.0,0.0,54,0.00,,---,0.00,VWS V14.01,2013-03-28 04:42:00,
2013-03-27 22:57:00,36.1,21.1,29.79,SSE,158,0.0,0.0,54,0.00,,---,0.00,VWS V14.01,2013-03-28 04:57:00,
2013-03-27 23:12:00,36.7,21.6,29.79,NE,45,0.0,0.0,54,0.00,,---,0.00,VWS V14.01,2013-03-28 05:12:00,
2013-03-27 23:27:00,36.7,21.6,29.79,SE,135,0.0,0.0,54,0.00,,---,0.00,VWS V14.01,2013-03-28 05:27:00,
2013-03-27 23:42:00,36.0,21.0,29.79,SE,135,0.0,0.0,54,0.00,,---,0.00,VWS V14.01,2013-03-28 05:42:00,
2013-03-27 23:57:00,36.1,21.1,29.79,SSE,158,0.0,0.0,54,0.00,,---,0.00,VWS V14.01,2013-03-28 05:57:00,